Els Cortals - Les Guilleries





Hora UTC 17:10
Temperatura 6.2 ºC
Humedad 90.0 %
Presión 1009.6 hPa
Pluja 0.0 mm
Velocidad viento 6.4 km/h
Dirección viento W

Datos diarios 2021-12-04



Hora UTC (invierno +1h; verano +2h)
Temperatura (ºC) Humedad (%) Presión (hPa) Velocidad viento (km/h) Precipitación (mm)
Hora UTC Aire Humedad Presión Vel. Dir. Vel. Max Dir. Intent. máx 5 min.
00:05 4.9 85.0 1014.2 11.3 WSW 11.3 0.0
00:10 4.9 85.0 1014.1 12.9 W 30.6 0.0
00:15 4.9 86.0 1014.0 11.3 SW 30.6 0.0
00:20 4.8 86.0 1013.9 11.3 SW 35.4 0.0
00:25 4.8 87.0 1013.8 20.9 WSW 35.4 0.0
00:30 4.7 87.0 1013.9 14.5 WSW 32.2 0.0
00:35 4.7 87.0 1013.6 16.1 SSW 33.8 0.0
00:40 4.7 87.0 1013.5 20.9 WSW 33.8 0.0
00:45 4.6 86.0 1013.3 20.9 WSW 29.0 0.0
00:50 4.7 85.0 1013.2 12.9 W 32.2 0.0
00:55 4.7 85.0 1013.1 11.3 WSW 32.2 0.0
01:00 4.8 85.0 1013.0 11.3 SW 30.6 0.0
01:05 4.8 84.0 1013.0 19.3 W 30.6 0.0
01:10 4.8 84.0 1013.1 14.5 W 35.4 0.0
01:15 4.8 84.0 1013.1 12.9 WSW 35.4 0.0
01:20 4.8 82.0 1013.1 20.9 WSW 35.4 0.0
01:25 4.8 82.0 1013.2 29.0 W 35.4 0.0
01:30 4.8 82.0 1013.1 24.1 W 29.0 0.0
01:35 4.8 82.0 1013.3 19.3 WNW 32.2 0.0
01:40 4.7 82.0 1013.2 14.5 W 32.2 0.0
01:45 4.7 81.0 1013.4 11.3 WSW 32.2 0.0
01:50 4.6 81.0 1013.5 14.5 W 29.0 0.0
01:55 4.6 82.0 1013.4 9.7 WSW 37.0 0.0
02:00 4.6 82.0 1013.3 20.9 W 37.0 0.0
02:05 4.6 81.0 1013.3 11.3 W 25.7 0.0
02:10 4.6 81.0 1013.3 6.4 W 25.7 0.0
02:15 4.6 81.0 1013.2 11.3 SW 25.7 0.0
02:20 4.5 81.0 1013.2 16.1 NW 32.2 0.0
02:25 4.5 81.0 1013.0 12.9 WSW 35.4 0.0
02:30 4.5 80.0 1013.0 14.5 WNW 35.4 0.0
02:35 4.5 80.0 1013.0 16.1 WNW 35.4 0.0
02:40 4.5 80.0 1012.8 12.9 SW 29.0 0.0
02:45 4.5 81.0 1012.8 12.9 WSW 32.2 0.0
02:50 4.4 82.0 1012.7 8.0 W 32.2 0.0
02:55 4.3 81.0 1012.6 24.1 WSW 32.2 0.0
03:00 4.3 81.0 1012.5 29.0 SW 32.2 0.0
03:05 4.2 82.0 1012.5 25.7 SW 32.2 0.0
03:10 4.1 82.0 1012.4 19.3 WSW 32.2 0.0
03:15 4.1 82.0 1012.4 22.5 WSW 32.2 0.0
03:20 4.1 82.0 1012.4 16.1 W 32.2 0.0
03:25 4.1 83.0 1012.4 19.3 SW 33.8 0.0
03:30 4.0 83.0 1012.4 14.5 SW 33.8 0.0
03:35 3.9 84.0 1012.2 20.9 WSW 25.7 0.0
03:40 3.8 85.0 1012.5 20.9 WSW 29.0 0.0
03:45 3.8 86.0 1012.4 14.5 SSW 29.0 0.0
03:50 3.7 87.0 1012.4 16.1 SW 29.0 0.0
03:55 3.7 88.0 1012.2 12.9 SSW 24.1 0.0
04:00 3.7 89.0 1012.0 12.9 WSW 24.1 0.0
04:05 3.7 89.0 1012.0 17.7 SW 22.5 0.0
04:10 3.7 90.0 1012.0 17.7 SW 24.1 0.0
04:15 3.7 90.0 1011.8 17.7 WSW 25.7 0.0
04:20 3.7 90.0 1011.8 19.3 SW 25.7 0.0
04:25 3.7 91.0 1011.9 11.3 WSW 24.1 0.0
04:30 3.7 91.0 1011.9 11.3 WNW 24.1 0.0
04:35 3.7 91.0 1012.0 4.8 WSW 22.5 0.0
04:40 3.8 91.0 1012.0 9.7 SW 22.5 0.0
04:40 3.8 91.0 1012.0 16.1 WSW 24.1 0.0
04:50 3.9 91.0 1012.1 12.9 WSW 24.1 0.0
04:55 3.9 91.0 1012.0 19.3 WSW 25.7 0.0
04:55 3.9 91.0 1011.9 9.7 NW 29.0 0.0
05:00 3.8 91.0 1011.9 9.7 W 29.0 0.0
05:05 3.8 91.0 1011.7 11.3 WSW 24.1 0.0
05:10 3.8 91.0 1011.7 16.1 W 25.7 0.0
05:15 3.8 91.0 1011.7 12.9 W 25.7 0.0
05:20 3.8 91.0 1011.6 14.5 SW 25.7 0.0
05:25 3.8 91.0 1011.7 12.9 SW 32.2 0.0
05:30 3.9 91.0 1011.7 14.5 SW 35.4 0.0
05:35 3.9 91.0 1011.6 8.0 SW 35.4 0.0
05:40 3.9 91.0 1011.6 20.9 WSW 37.0 0.0
05:45 4.1 91.0 1011.7 19.3 WSW 37.0 0.0
05:50 4.1 91.0 1011.7 9.7 SSW 30.6 0.0
05:55 4.1 91.0 1011.7 24.1 WSW 33.8 0.0
06:00 4.1 91.0 1011.7 20.9 W 33.8 0.0
06:05 3.9 91.0 1011.5 20.9 WNW 33.8 0.0
06:10 3.8 91.0 1011.6 35.4 W 37.0 0.0
06:15 3.6 91.0 1011.5 17.7 SW 37.0 0.0
06:20 3.5 92.0 1011.6 16.1 W 33.8 0.0
06:30 3.4 93.0 1011.5 17.7 WSW 33.8 0.0
06:35 3.3 93.0 1011.4 24.1 W 37.0 0.0
06:40 3.3 93.0 1011.4 17.7 WSW 33.8 0.0
06:45 3.4 93.0 1011.4 12.9 WNW 37.0 0.0
06:50 3.3 93.0 1011.3 24.1 WSW 38.6 0.0
06:55 3.3 94.0 1011.1 20.9 S 38.6 0.0
07:00 3.3 94.0 1011.1 20.9 W 35.4 0.0
07:05 3.2 94.0 1011.1 9.7 SW 37.0 0.0
07:05 3.2 94.0 1011.0 19.3 W 46.7 0.0
07:15 3.2 94.0 1010.9 19.3 SW 38.6 0.0
07:20 3.3 94.0 1010.9 22.5 WSW 38.6 0.0
07:25 3.3 94.0 1010.9 20.9 SW 38.6 0.0
07:30 3.3 94.0 1010.9 32.2 WSW 37.0 0.0
07:35 3.3 94.0 1010.8 17.7 W 37.0 0.0
07:40 3.3 94.0 1010.9 22.5 SW 41.8 0.0
07:45 3.4 94.0 1010.8 17.7 W 48.3 0.0
07:50 3.4 94.0 1010.7 14.5 WSW 40.2 0.0
07:55 3.4 94.0 1010.6 16.1 WSW 41.8 0.0
08:00 3.3 94.0 1010.6 24.1 W 40.2 0.0
08:05 3.3 94.0 1010.3 32.2 W 40.2 0.0
08:10 3.3 94.0 1010.4 11.3 SW 37.0 0.0
08:15 3.3 94.0 1010.5 35.4 W 37.0 0.0
08:20 3.3 94.0 1010.6 12.9 SSW 37.0 0.0
08:25 3.3 94.0 1010.4 17.7 WSW 38.6 0.0
08:30 3.3 94.0 1010.6 19.3 WNW 38.6 0.0
08:35 3.3 94.0 1010.4 24.1 W 38.6 0.0
08:40 3.4 94.0 1010.4 14.5 SW 37.0 0.0
08:45 3.4 94.0 1010.2 19.3 SW 49.9 0.0
08:50 3.4 94.0 1010.1 11.3 SSW 49.9 0.0
08:55 3.4 94.0 1009.9 11.3 SSW 46.7 0.0
09:00 3.4 94.0 1010.0 12.9 SW 46.7 0.0
09:05 3.5 95.0 1010.0 25.7 W 38.6 0.0
09:10 3.5 95.0 1010.0 17.7 WSW 40.2 0.0
09:15 3.6 95.0 1009.9 12.9 SW 40.2 0.0
09:20 3.8 94.0 1009.9 22.5 WSW 32.2 0.0
09:25 3.9 95.0 1009.9 16.1 SW 32.2 0.0
09:30 4.1 94.0 1009.9 16.1 WSW 41.8 0.0
09:35 4.2 95.0 1009.8 37.0 W 41.8 0.0
09:40 4.3 94.0 1009.9 17.7 SW 41.8 0.0
09:45 4.4 94.0 1009.9 22.5 SW 38.6 0.0
09:50 4.5 95.0 1009.8 11.3 SW 38.6 0.0
09:55 4.6 95.0 1009.8 12.9 SSW 38.6 0.0
10:00 4.6 95.0 1009.8 29.0 SW 38.6 0.0
10:05 4.7 94.0 1009.8 11.3 SW 38.6 0.0
10:10 4.8 94.0 1009.8 11.3 WSW 46.7 0.0
10:15 4.8 94.0 1009.7 14.5 NW 46.7 0.0
10:20 5.1 94.0 1009.9 19.3 WNW 37.0 0.0
10:25 5.2 94.0 1009.8 12.9 WSW 45.1 0.0
10:30 5.4 94.0 1009.7 29.0 W 45.1 0.0
10:35 5.6 93.0 1009.5 20.9 WSW 41.8 0.0
10:40 5.8 93.0 1009.4 17.7 WSW 40.2 0.0
10:45 5.9 92.0 1009.5 22.5 WSW 40.2 0.0
10:50 5.9 91.0 1009.4 17.7 SW 41.8 0.0
10:55 5.8 91.0 1009.3 29.0 WSW 46.7 0.0
11:00 5.8 91.0 1009.3 29.0 W 46.7 0.0
11:05 5.9 91.0 1009.2 17.7 SW 40.2 0.0
11:10 6.2 90.0 1009.2 30.6 W 45.1 0.0
11:15 6.3 89.0 1009.1 22.5 SSW 45.1 0.0
11:20 6.2 89.0 1008.9 11.3 NW 41.8 0.0
11:25 6.2 88.0 1009.0 16.1 WSW 40.2 0.0
11:30 6.3 89.0 1008.9 14.5 WSW 40.2 0.0
11:35 6.5 88.0 1008.7 19.3 SW 40.2 0.0
11:35 6.6 88.0 1008.8 16.1 SSW 40.2 0.0
11:40 6.7 87.0 1008.6 19.3 W 41.8 0.0
11:45 6.7 87.0 1008.8 16.1 SW 45.1 0.0
11:50 6.7 86.0 1008.7 19.3 SW 45.1 0.0
11:55 6.7 87.0 1009.0 12.9 W 43.5 0.0
12:00 6.7 87.0 1009.2 14.5 SW 35.4 0.0
12:05 6.7 87.0 1009.3 8.0 WSW 30.6 0.0
12:10 6.7 87.0 1009.5 17.7 SW 25.7 0.0
12:15 6.7 87.0 1009.4 30.6 W 33.8 0.0
12:20 6.9 87.0 1009.2 11.3 SW 33.8 0.0
12:25 7.2 87.0 1009.2 12.9 SW 24.1 0.0
12:30 7.3 87.0 1009.0 0.0 SW 22.5 0.0
12:35 7.6 87.0 1008.7 1.6 NW 22.5 0.0
12:45 0.0
12:50 0.0
12:55 0.0
13:00 0.0
13:05 0.0
13:10 0.0
13:15 0.0
13:20 0.0
13:25 0.0
13:30 0.0
13:35 0.0
13:40 0.0
13:45 0.0
13:45 0.0
13:55 0.0
14:00 0.0
14:05 0.0
14:05 0.0
14:10 0.0
14:15 0.0
14:20 0.0
14:25 0.0
14:35 0.0
14:40 0.0
14:40 0.0
14:45 0.0
14:50 0.0
14:55 0.0
15:00 0.0
15:05 0.0
15:10 0.0
15:15 0.0
15:25 0.0
15:30 0.0
15:35 0.0
15:40 6.4 88.0 1008.9 9.7 WNW 16.1 0.0
15:45 6.4 88.0 1008.8 9.7 WNW 16.1 0.0
15:50 6.3 88.0 1008.9 9.7 WSW 22.5 0.0
15:55 6.3 88.0 1008.9 6.4 SW 22.5 0.0
16:00 6.3 88.0 1009.0 9.7 SW 22.5 0.0
16:05 6.3 88.0 1009.2 3.2 SW 22.5 0.0
16:10 6.3 88.0 1009.2 9.7 SW 20.9 0.0
16:15 6.3 88.0 1009.2 6.4 WSW 20.9 0.0
16:20 6.2 89.0 1009.1 14.5 WSW 20.9 0.0
16:25 6.2 89.0 1009.2 8.0 WSW 20.9 0.0
16:30 6.2 89.0 1009.3 11.3 SSW 19.3 0.0
16:35 6.2 89.0 1009.2 16.1 WSW 20.9 0.0
16:40 6.2 89.0 1009.3 8.0 SW 20.9 0.0
16:45 6.2 89.0 1009.3 4.8 WNW 20.9 0.0
16:50 6.2 89.0 1009.3 14.5 WSW 20.9 0.0
16:55 6.2 89.0 1009.4 11.3 W 20.9 0.0
17:00 6.2 90.0 1009.3 6.4 SW 20.9 0.0
17:05 6.2 90.0 1009.4 8.0 W 16.1 0.0
17:10 6.2 90.0 1009.6 6.4 W 22.5 0.0
Máxima 7.6 95.0 1014.2 37.0 W 49.9 0.0
Mínima 3.2 80.0 1008.6
Total 0.0